FW4191 Weather Reports


Display with metric or nautical units.
time (UTC)temp
F
wind
direction
speed
MPH
gust
MPH
rain 1hr
in
rain 24hr
in
rain mn
in
humidity
%
barometer
mb
20260506172928 59 360 0.0 0.0 0.01 0.93 0.51 55 1077.6
20260506170928 59 37 2.0 4.0 0.03 0.93 0.51 57 1077.7
20260506170027 59 290 0.0 1.0 0.04 0.93 0.51 57 1077.8
20260506165028 60 59 1.0 3.0 0.05 0.93 0.51 60 1077.8
20260506164028 59 54 2.0 3.0 0.06 0.93 0.51 58 1077.9
20260506162045 58 291 0.0 1.0 0.06 0.91 0.49 62 1077.7
20260506161127 57 315 0.0 1.0 0.05 0.90 0.48 63 1077.7
20260506160128 56 73 2.0 4.0 0.05 0.89 0.47 61 1077.7
20260506154129 57 10 1.0 3.0 0.04 0.87 0.45 63 1078.0
20260506153227 56 19 1.0 3.0 0.05 0.87 0.44 64 1078.0
20260506152228 56 251 0.0 1.0 0.05 0.86 0.44 66 1077.9
20260506151230 55 290 1.0 2.0 0.04 0.85 0.43 70 1077.3
20260506150228 55 199 0.0 2.0 0.04 0.84 0.42 73 1077.2
20260506145229 54 22 0.0 0.0 0.03 0.83 0.41 77 1076.8
20260506144327 54 268 0.0 1.0 0.04 0.83 0.41 79 1076.7
20260506144228 54 9 0.0 1.0 0.04 0.83 0.41 79 1076.7
20260506143228 53 41 2.0 4.0 0.03 0.82 0.40 85 1076.6
20260506141326 51 26 1.0 2.0 0.03 0.81 0.39 91 1076.7
20260506140327 50 360 0.0 0.0 0.03 0.80 0.38 92 1076.6
20260506134327 48 26 1.0 2.0 0.03 0.79 0.37 94 1076.6
20260506132428 47 45 0.0 1.0 0.03 0.78 0.36 95 1075.9
20260506131428 47 45 0.0 0.0 0.03 0.78 0.36 95 1076.1
20260506131327 47 45 0.0 0.0 0.03 0.78 0.36 95 1076.1
20260506131244 47 45 0.0 0.0 0.03 0.78 0.36 95 1076.1
20260506130328 47 45 0.0 0.0 0.03 0.77 0.35 95 1076.0
20260506124330 46 45 0.0 0.0 0.03 0.76 0.34 94 1075.4
20260506122428 46 229 0.0 3.0 0.03 0.75 0.33 94 1075.5
20260506121444 45 67 0.0 0.0 0.03 0.75 0.33 94 1075.1
20260506120428 45 360 0.0 0.0 0.03 0.74 0.32 95 1075.2
20260506115526 45 360 0.0 0.0 0.03 0.74 0.32 95 1074.8
20260506114528 44 156 0.0 0.0 0.03 0.74 0.31 94 1074.2
20260506113527 44 157 0.0 0.0 0.03 0.74 0.31 94 1074.0
20260506112530 44 67 0.0 0.0 0.04 0.74 0.30 94 1073.8
20260506111528 44 315 0.0 0.0 0.03 0.73 0.30 94 1073.9
20260506110528 45 180 0.0 0.0 0.04 0.73 0.28 95 1073.9
20260506105626 45 180 0.0 0.0 0.03 0.72 0.28 95 1073.5
20260506104726 45 180 0.0 0.0 0.04 0.72 0.28 94 1073.3
20260506103728 45 180 0.0 0.0 0.04 0.72 0.28 95 1073.7
20260506102745 45 180 0.0 1.0 0.03 0.71 0.27 94 1073.3
20260506102627 45 126 0.0 1.0 0.03 0.72 0.27 95 1073.2
20260506101627 45 180 0.0 0.0 0.04 0.74 0.27 95 1073.0
20260506095628 45 270 0.0 0.0 0.04 0.74 0.25 95 1073.0
20260506094628 44 225 0.0 0.0 0.04 0.74 0.25 95 1072.7
20260506093727 44 315 0.0 0.0 0.03 0.73 0.24 95 1072.5
20260506092727 44 259 0.0 0.0 0.04 0.73 0.24 95 1072.2
20260506090828 44 85 1.0 3.0 0.04 0.72 0.23 95 1072.0
20260506084827 44 225 0.0 0.0 0.04 0.70 0.21 94 1072.3
20260506082843 45 303 1.0 3.0 0.04 0.69 0.20 94 1072.1
20260506081928 45 45 0.0 0.0 0.04 0.68 0.19 95 1071.9
20260506081829 45 52 0.0 0.0 0.04 0.68 0.19 94 1071.9
20260506080826 45 157 0.0 0.0 0.05 0.68 0.19 95 1071.8
20260506072828 46 58 1.0 7.0 0.05 0.65 0.16 95 1072.1
20260506071828 46 310 1.0 3.0 0.04 0.64 0.15 95 1071.9
20260506070827 47 39 2.0 6.0 0.04 0.63 0.14 95 1071.8
20260506061928 48 346 0.0 1.0 0.05 0.60 0.11 93 1070.9
20260506051027 50 67 0.0 0.0 0.04 0.54 0.05 93 1071.1
20260506045125 51 76 0.0 4.0 0.05 0.53 0.04 93 1071.0
20260506044127 51 5 0.0 1.0 0.04 0.52 0.03 93 1071.1
20260506044028 51 16 0.0 2.0 0.04 0.52 0.03 94 1071.0
20260506043027 52 247 0.0 0.0 0.04 0.51 0.02 93 1071.4
20260506042126 53 67 2.0 5.0 0.04 0.50 0.01 94 1071.2
20260506035210 55 180 0.0 2.0 0.04 0.48 0.48 94 1070.6
20260506034212 56 301 0.0 1.0 0.05 0.48 0.48 93 1070.7
20260506033211 57 225 0.0 0.0 0.05 0.47 0.47 93 1070.7
20260506033109 57 225 0.0 0.0 0.05 0.47 0.47 93 1070.7
20260506032109 59 270 1.0 2.0 0.05 0.46 0.46 92 1070.8
20260506032026 59 251 0.0 1.0 0.05 0.46 0.46 92 1070.8
20260506031110 59 247 0.0 0.0 0.05 0.45 0.45 92 1070.9
20260506030110 59 247 0.0 0.0 0.05 0.44 0.44 93 1070.9
20260506025208 59 247 0.0 0.0 0.06 0.44 0.44 93 1071.3
20260506025111 59 247 0.0 0.0 0.06 0.44 0.43 92 1071.3
20260506024109 59 247 0.0 0.0 0.06 0.43 0.43 93 1071.8
20260506023208 59 247 0.0 0.0 0.05 0.42 0.42 92 1071.9
20260506023110 59 247 0.0 0.0 0.05 0.42 0.42 93 1071.9
20260506021309 59 247 0.0 0.0 0.05 0.40 0.40 93 1071.8
20260506020310 59 247 0.0 0.0 0.05 0.39 0.39 93 1071.9
20260506015310 59 247 0.0 0.0 0.05 0.38 0.38 93 1071.8
20260506014311 59 247 0.0 0.0 0.06 0.38 0.38 92 1071.7
20260506013408 59 247 0.0 0.0 0.05 0.37 0.37 93 1071.6
20260506012411 59 247 0.0 0.0 0.05 0.36 0.36 93 1071.6
20260506011508 59 247 0.0 0.0 0.05 0.35 0.35 93 1071.6
20260506010511 59 247 0.0 0.0 0.05 0.34 0.34 92 1071.6
20260506005510 59 247 0.0 0.0 0.04 0.33 0.33 92 1071.5
20260506004525 59 247 0.0 0.0 0.03 0.32 0.32 92 1071.4
20260506003510 59 247 0.0 0.0 0.04 0.32 0.32 93 1071.2
20260506002607 59 247 0.0 0.0 0.03 0.31 0.31 93 1071.1
20260506001610 59 202 0.0 0.0 0.02 0.30 0.30 93 1070.9
20260506001524 59 202 0.0 0.0 0.02 0.30 0.30 93 1070.9
20260505235608 60 225 0.0 0.0 0.01 0.28 0.28 92 1071.1
20260505234610 60 225 0.0 0.0 0.01 0.28 0.28 92 1071.0
20260505233624 60 269 0.0 1.0 0.01 0.28 0.28 93 1071.3
20260505232624 60 270 0.0 0.0 0.02 0.28 0.28 93 1071.3
20260505230710 60 247 0.0 0.0 0.03 0.28 0.28 92 1071.4
20260505224709 60 247 0.0 0.0 0.04 0.28 0.28 93 1071.8
20260505224611 60 247 0.0 0.0 0.05 0.28 0.28 93 1071.8
20260505223610 60 210 3.0 6.0 0.04 0.27 0.27 92 1071.9
20260505221610 60 212 1.0 3.0 0.05 0.26 0.26 92 1072.1
20260505220610 60 255 0.0 2.0 0.05 0.25 0.25 91 1072.3
20260505220525 60 206 0.0 1.0 0.05 0.25 0.25 92 1072.3
20260505215509 60 249 0.0 2.0 0.05 0.24 0.24 91 1072.2
20260505215410 60 306 1.0 2.0 0.05 0.24 0.24 92 1072.2
20260505214410 60 262 1.0 2.0 0.05 0.23 0.23 92 1072.2
20260505213508 60 198 2.0 4.0 0.07 0.23 0.23 92 1072.3
20260505212511 60 337 0.0 0.0 0.07 0.22 0.22 92 1072.2
20260505211525 61 215 0.0 2.0 0.08 0.21 0.21 91 1072.3
20260505210511 61 314 0.0 1.0 0.09 0.20 0.20 91 1072.3
20260505205511 61 246 0.0 2.0 0.10 0.19 0.19 91 1072.3
20260505204608 61 225 0.0 0.0 0.10 0.18 0.18 90 1072.3
20260505203609 61 316 0.0 2.0 0.10 0.17 0.16 89 1072.3
20260505202624 61 202 1.0 3.0 0.08 0.15 0.15 88 1072.3
20260505201709 61 277 0.0 1.0 0.06 0.13 0.13 86 1072.5
20260505201610 61 202 0.0 0.0 0.06 0.13 0.13 87 1072.4
20260505200708 61 227 0.0 2.0 0.05 0.12 0.11 85 1072.4
20260505195725 63 292 0.0 0.0 0.03 0.10 0.09 80 1072.7
20260505194726 65 341 0.0 2.0 0.01 0.08 0.08 74 1072.8
20260505193725 67 247 0.0 2.0 0.00 0.07 0.07 69 1072.2
20260505193610 67 226 2.0 3.0 0.00 0.07 0.07 69 1072.2
20260505192624 68 225 0.0 1.0 0.00 0.07 0.07 68 1071.9
20260505191709 68 180 0.0 1.0 0.00 0.07 0.07 68 1072.0
20260505190710 68 270 0.0 0.0 0.00 0.07 0.07 68 1072.2
20260505185724 67 216 1.0 4.0 0.00 0.07 0.07 68 1072.3
20260505185626 67 233 0.0 3.0 0.00 0.07 0.07 68 1072.3
20260505184609 67 251 2.0 5.0 0.00 0.07 0.07 69 1072.5
20260505183609 67 249 3.0 5.0 0.00 0.07 0.07 68 1072.6
20260505181608 67 213 1.0 2.0 0.00 0.07 0.07 69 1073.0
20260505180608 67 71 0.0 0.0 0.00 0.07 0.07 69 1073.0
20260505175609 67 223 0.0 1.0 0.00 0.07 0.07 69 1073.2
20260505174608 67 207 0.0 2.0 0.00 0.07 0.07 69 1073.2
20260505173624 66 202 0.0 0.0 0.00 0.07 0.07 68 1073.3
20260505173524 66 202 0.0 1.0 0.00 0.07 0.07 67 1073.5